PISAT

Last updated on Mon Oct 20 2025 00:03:35 GMT+0000 (Coordinated Universal Time)

1 41784U 16059B 25292.23901528 .00002556 00000+0 44861-3 0 9998 2 41784 97.8175 298.2185 0027859 254.4793 105.3337 14.68294662484379
UTC large
Height (km)
Speed (km/s)
/
Latitude / Longitude
Inclination (degrees)
Orbital Period (minutes)
Azimuth
Elevation
Range (km)
Doppler Factor

Next 0 passes for location: London (51.5072 / 0.1276)

Sorry there are no passes over London.